User: anonymous   Login
Location: Campo Alegre
(10.4289°N, 66.6519°W)
Time: 16:39:33
(UTC+00:00)
Language:

Cosmos 1076 Rocket - Orbit

View from above orbital plane
View from above orbital plane
View from above satellite
View from above satellite

Ground track
Ground track

The orbit data is extracted from the following two-line orbital elements,

1 11267U 79011B   24207.32894708  .00001286  00000-0  12901-3 0  9994
2 11267  82.5258 298.0418 0015274 231.7892 128.1952 14.90500688461697
Epoch (UTC): 25 July 2024 07:53:41
Eccentricity: 0.0015274
inclination: 82.5258°
perigee height: 586 km
apogee height: 607 km
right ascension of ascending node: 298.0418°
argument of perigee: 231.7892°
revolutions per day: 14.90500688
mean anomaly at epoch: 128.1952°
orbit number at epoch: 46169

The dashed part of the orbit path shows where the satellite is in the earth's shadow,  

DLR